sat.trackr.live / text

‹ back to catalog

AII-BRAVO

NORAD 48270 · 2021-034C

PAYLOAD ACTIVE UNKNOWN

§ Identity

Operator
Country
LTU
Launch date
2021-04-29
Launch site
FRGUI
Launch vehicle
Mass (kg)
RCS (m²)

External: N2YO · Heavens-Above · Gunter

§ Orbital elements

Epoch: 2026-09-20T08:57:42.687936Z

Period
95.74 min
Inclination
97.5511°
Eccentricity
0.0004681
Mean motion
15.04076253 rev/d
Perigee alt
551.1 km
Apogee alt
557.6 km
Semi-major
6,932.5 km
B*
2.1431e-4
RAAN
316.1040°
Arg perigee
308.3208°
Mean anomaly
51.7597°
Rev number
29,392

§ Raw data

AII-BRAVO1 48270U 21034C   26263.37341074  .00002907  00000+0  21431-3 0  99902 48270  97.5511 316.1040 0004681 308.3208  51.7597 15.04076253293921

JSON: /api/v1/satellites/48270 · /tle

For live sub-satellite position, see the globe view (requires WebGL).

§ Visibility from observer

Set your observer location to see the next 7 days of passes ≥ 10°. The values pass through the URL so the page stays shareable.

No JS? Fill the form by hand. The geolocation button needs JavaScript.

§ Radio — SatNOGS DB

ModeDescriptionDownlinkUplink
FM Downlink 401.050 MHz
FM second telemetry frequency 402.001 MHz

2 transmitters · refreshed weekly from db.satnogs.org